NBE YPAD-YMEN

Flight info

Callsign NBE
Flight time 1h 8m
Altitude 41000
Route AD V255 BENDO Y218 TYNDI Y53 ALAXO/N0362F190 W382 ESDAN
Aircraft HDJT/L-SABDGRWY/H

Departure

Time 2026-04-12 05:08
Airport Adelaide International Airport (YPAD)

Arrival

Time 2026-04-12 06:17
Airport Melbourne Essendon Airport (YMEN)
Time Latitude Longitude Altitude Speed Heading
2026-04-12 04:51 -34.93975 138.53020 17 ft 0 kts 107°
2026-04-12 05:03 -34.93976 138.53021 17 ft 1 kts 107°
2026-04-12 05:03 -34.93960 138.53038 17 ft 7 kts 355°
2026-04-12 05:03 -34.93953 138.52984 15 ft 9 kts 251°
2026-04-12 05:03 -34.93982 138.52952 15 ft 7 kts 182°
2026-04-12 05:04 -34.94060 138.52937 15 ft 15 kts 190°
2026-04-12 05:04 -34.94175 138.52932 17 ft 18 kts 175°
2026-04-12 05:04 -34.94287 138.52918 20 ft 16 kts 179°
2026-04-12 05:04 -34.94385 138.52985 20 ft 18 kts 125°
2026-04-12 05:05 -34.94459 138.53123 20 ft 19 kts 124°
2026-04-12 05:05 -34.94518 138.53262 17 ft 20 kts 96°
2026-04-12 05:05 -34.94458 138.53411 14 ft 20 kts 50°
2026-04-12 05:05 -34.94369 138.53541 15 ft 19 kts 50°
2026-04-12 05:06 -34.94283 138.53666 16 ft 19 kts 51°
2026-04-12 05:06 -34.94201 138.53784 19 ft 17 kts 50°
2026-04-12 05:06 -34.94150 138.53859 21 ft 18 kts 50°
2026-04-12 05:06 -34.94037 138.54023 22 ft 19 kts 50°
2026-04-12 05:07 -34.93985 138.54099 25 ft 17 kts 50°
2026-04-12 05:07 -34.93962 138.54208 23 ft 13 kts 137°
2026-04-12 05:07 -34.94024 138.54271 26 ft 14 kts 141°
2026-04-12 05:07 -34.94110 138.54261 26 ft 17 kts 230°
2026-04-12 05:08 -34.94326 138.53945 21 ft 83 kts 230°
2026-04-12 05:08 -34.94821 138.53256 223 ft 122 kts 226°
2026-04-12 05:08 -34.95474 138.52369 593 ft 158 kts 229°
2026-04-12 05:08 -34.96188 138.51286 1538 ft 172 kts 233°
2026-04-12 05:09 -34.96972 138.50092 2434 ft 187 kts 231°
2026-04-12 05:09 -34.97799 138.48892 3536 ft 188 kts 231°
2026-04-12 05:09 -34.98659 138.47646 4355 ft 194 kts 231°
2026-04-12 05:09 -34.99540 138.46356 5021 ft 209 kts 231°
2026-04-12 05:10 -35.00556 138.44996 5396 ft 215 kts 221°
2026-04-12 05:10 -35.01739 138.44028 6683 ft 202 kts 212°
2026-04-12 05:10 -35.03081 138.43401 7419 ft 211 kts 197°
2026-04-12 05:10 -35.04552 138.43178 8272 ft 217 kts 185°
2026-04-12 05:11 -35.06073 138.43419 9075 ft 226 kts 172°
2026-04-12 05:11 -35.07553 138.44162 9891 ft 236 kts 157°
2026-04-12 05:11 -35.08881 138.45415 10607 ft 249 kts 141°
2026-04-12 05:11 -35.09915 138.47171 11304 ft 262 kts 124°
2026-04-12 05:12 -35.10505 138.49334 11960 ft 276 kts 105°
2026-04-12 05:12 -35.10537 138.51690 12619 ft 287 kts 89°
2026-04-12 05:12 -35.10364 138.54137 13269 ft 291 kts 90°
2026-04-12 05:12 -35.10218 138.56650 13934 ft 296 kts 90°
2026-04-12 05:13 -35.10067 138.59174 14529 ft 300 kts 89°
2026-04-12 05:13 -35.09903 138.61725 15131 ft 303 kts 89°
2026-04-12 05:13 -35.09737 138.64301 15724 ft 306 kts 89°
2026-04-12 05:13 -35.09573 138.66904 16323 ft 309 kts 90°
2026-04-12 05:14 -35.09412 138.69486 16892 ft 312 kts 89°
2026-04-12 05:14 -35.09239 138.72182 17482 ft 315 kts 89°
2026-04-12 05:14 -35.09064 138.74859 18039 ft 319 kts 89°
2026-04-12 05:14 -35.08890 138.77570 18596 ft 322 kts 89°
2026-04-12 05:15 -35.08711 138.80305 19090 ft 324 kts 89°
2026-04-12 05:15 -35.08530 138.83059 19586 ft 327 kts 89°
2026-04-12 05:15 -35.08358 138.85839 20077 ft 329 kts 90°
2026-04-12 05:15 -35.08177 138.88637 20575 ft 332 kts 89°
2026-04-12 05:16 -35.07989 138.91454 21063 ft 334 kts 89°
2026-04-12 05:16 -35.07801 138.94295 21554 ft 337 kts 89°
2026-04-12 05:16 -35.07614 138.97156 22034 ft 340 kts 89°
2026-04-12 05:16 -35.07423 139.00041 22527 ft 342 kts 89°
2026-04-12 05:17 -35.07229 139.02945 23004 ft 345 kts 89°
2026-04-12 05:17 -35.07033 139.05874 23488 ft 348 kts 89°
2026-04-12 05:17 -35.06836 139.08829 23931 ft 351 kts 89°
2026-04-12 05:17 -35.06636 139.11804 24334 ft 353 kts 89°
2026-04-12 05:18 -35.06434 139.14799 24743 ft 355 kts 89°
2026-04-12 05:18 -35.06315 139.17823 24992 ft 360 kts 99°
2026-04-12 05:18 -35.06741 139.20865 24999 ft 368 kts 112°
2026-04-12 05:18 -35.07693 139.23778 25023 ft 372 kts 126°
2026-04-12 05:19 -35.09130 139.26404 25056 ft 375 kts 136°
2026-04-12 05:19 -35.10750 139.28959 25082 ft 386 kts 135°
2026-04-12 05:19 -35.12378 139.31619 25102 ft 396 kts 134°
2026-04-12 05:19 -35.14014 139.34312 25447 ft 393 kts 134°
2026-04-12 05:20 -35.15663 139.36963 25761 ft 391 kts 135°
2026-04-12 05:20 -35.17317 139.39604 26057 ft 392 kts 135°
2026-04-12 05:20 -35.18955 139.42269 26371 ft 392 kts 134°
2026-04-12 05:20 -35.20582 139.44938 26698 ft 391 kts 135°
2026-04-12 05:21 -35.22223 139.47589 27030 ft 391 kts 135°
2026-04-12 05:21 -35.23865 139.50236 27373 ft 390 kts 135°
2026-04-12 05:21 -35.25526 139.52791 27701 ft 388 kts 138°
2026-04-12 05:21 -35.27256 139.55313 28059 ft 387 kts 138°
2026-04-12 05:22 -35.28984 139.57834 28426 ft 387 kts 138°
2026-04-12 05:22 -35.30697 139.60373 28801 ft 387 kts 137°
2026-04-12 05:22 -35.32405 139.62908 29173 ft 386 kts 138°
2026-04-12 05:22 -35.34120 139.65434 29576 ft 385 kts 138°
2026-04-12 05:23 -35.35832 139.67955 29990 ft 385 kts 138°
2026-04-12 05:23 -35.37537 139.70481 30373 ft 384 kts 138°
2026-04-12 05:23 -35.39240 139.73005 30693 ft 385 kts 138°
2026-04-12 05:23 -35.40948 139.75532 31023 ft 385 kts 138°
2026-04-12 05:24 -35.42657 139.78063 31342 ft 385 kts 138°
2026-04-12 05:24 -35.44363 139.80599 31657 ft 386 kts 138°
2026-04-12 05:24 -35.46075 139.83140 31978 ft 386 kts 138°
2026-04-12 05:24 -35.47787 139.85679 32310 ft 386 kts 139°
2026-04-12 05:25 -35.49504 139.88220 32631 ft 387 kts 138°
2026-04-12 05:25 -35.51215 139.90767 32950 ft 387 kts 138°
2026-04-12 05:25 -35.52911 139.93303 33154 ft 382 kts 138°
2026-04-12 05:26 -35.56383 139.98452 33170 ft 400 kts 138°
2026-04-12 05:26 -35.59986 140.03849 33168 ft 416 kts 137°
2026-04-12 05:27 -35.63714 140.09417 33173 ft 427 kts 137°
2026-04-12 05:27 -35.67525 140.15131 33162 ft 436 kts 137°
2026-04-12 05:28 -35.71400 140.20941 33166 ft 441 kts 137°
2026-04-12 05:28 -35.75294 140.26796 33151 ft 442 kts 137°
2026-04-12 05:29 -35.79194 140.32666 33160 ft 443 kts 137°
2026-04-12 05:29 -35.83088 140.38542 33150 ft 443 kts 137°
2026-04-12 05:30 -35.86985 140.44416 33157 ft 442 kts 137°
2026-04-12 05:30 -35.90871 140.50304 33148 ft 443 kts 137°
2026-04-12 05:31 -35.94756 140.56188 33151 ft 442 kts 137°
2026-04-12 05:31 -35.98634 140.62080 33147 ft 442 kts 137°
2026-04-12 05:32 -36.02512 140.67969 33148 ft 442 kts 137°
2026-04-12 05:32 -36.06379 140.73868 33135 ft 442 kts 137°
2026-04-12 05:33 -36.10216 140.79726 33141 ft 441 kts 137°
2026-04-12 05:33 -36.14078 140.85627 33138 ft 441 kts 137°
2026-04-12 05:34 -36.17935 140.91531 33148 ft 441 kts 137°
2026-04-12 05:34 -36.21787 140.97438 33130 ft 441 kts 137°
2026-04-12 05:35 -36.25472 141.03548 33138 ft 445 kts 132°
2026-04-12 05:35 -36.28984 141.09861 33127 ft 444 kts 133°
2026-04-12 05:36 -36.32534 141.16136 33133 ft 445 kts 132°
2026-04-12 05:36 -36.36046 141.22447 33127 ft 444 kts 133°
2026-04-12 05:37 -36.39575 141.28735 33128 ft 444 kts 133°
2026-04-12 05:37 -36.43083 141.35041 32868 ft 440 kts 133°
2026-04-12 05:37 -36.44799 141.38128 32999 ft 430 kts 133°
2026-04-12 05:38 -36.46495 141.41168 33108 ft 428 kts 133°
2026-04-12 05:38 -36.49886 141.47262 33113 ft 429 kts 133°
2026-04-12 05:39 -36.53281 141.53374 33115 ft 430 kts 133°
2026-04-12 05:39 -36.56669 141.59496 33125 ft 430 kts 133°
2026-04-12 05:40 -36.60125 141.65536 33120 ft 423 kts 140°
2026-04-12 05:40 -36.64307 141.70493 33123 ft 412 kts 148°
2026-04-12 05:41 -36.68687 141.75068 33123 ft 411 kts 149°
2026-04-12 05:41 -36.73094 141.79599 33116 ft 410 kts 150°
2026-04-12 05:42 -36.77497 141.84125 33118 ft 410 kts 150°
2026-04-12 05:42 -36.81897 141.88662 33117 ft 410 kts 150°
2026-04-12 05:43 -36.88502 141.95441 33109 ft 408 kts 152°
2026-04-12 05:43 -36.92642 142.00415 33112 ft 427 kts 135°
2026-04-12 05:44 -36.95808 142.06800 33110 ft 432 kts 131°
2026-04-12 05:44 -36.98902 142.13265 33111 ft 434 kts 129°
2026-04-12 05:45 -37.01961 142.19766 33108 ft 433 kts 130°
2026-04-12 05:45 -37.05034 142.26252 33104 ft 434 kts 130°
2026-04-12 05:46 -37.08086 142.32702 33095 ft 433 kts 130°
2026-04-12 05:46 -37.09630 142.35981 32933 ft 429 kts 130°
2026-04-12 05:46 -37.11135 142.39196 32713 ft 427 kts 130°
2026-04-12 05:47 -37.12646 142.42402 32477 ft 427 kts 130°
2026-04-12 05:47 -37.14139 142.45564 32239 ft 427 kts 130°
2026-04-12 05:47 -37.15645 142.48778 31994 ft 429 kts 130°
2026-04-12 05:47 -37.17151 142.52007 31747 ft 429 kts 129°
2026-04-12 05:48 -37.18660 142.55227 31502 ft 428 kts 130°
2026-04-12 05:48 -37.20175 142.58449 31259 ft 430 kts 130°
2026-04-12 05:48 -37.21691 142.61688 31007 ft 431 kts 129°
2026-04-12 05:48 -37.22713 142.63882 30847 ft 431 kts 129°
2026-04-12 05:49 -37.23831 142.66289 30658 ft 430 kts 129°
2026-04-12 05:49 -37.25342 142.69525 30410 ft 430 kts 129°
2026-04-12 05:49 -37.26858 142.72766 30164 ft 431 kts 129°
2026-04-12 05:50 -37.28368 142.76014 29883 ft 431 kts 129°
2026-04-12 05:50 -37.29879 142.79271 29623 ft 431 kts 129°
2026-04-12 05:50 -37.31389 142.82529 29371 ft 432 kts 129°
2026-04-12 05:50 -37.32897 142.85789 29124 ft 433 kts 129°
2026-04-12 05:51 -37.34416 142.89058 28874 ft 434 kts 129°
2026-04-12 05:51 -37.35939 142.92330 28622 ft 433 kts 129°
2026-04-12 05:51 -37.37445 142.95595 28372 ft 431 kts 129°
2026-04-12 05:51 -37.38944 142.98851 28119 ft 429 kts 129°
2026-04-12 05:52 -37.39937 143.00993 27957 ft 428 kts 129°
2026-04-12 05:52 -37.41939 143.05307 27630 ft 426 kts 129°
2026-04-12 05:52 -37.42920 143.07441 27468 ft 425 kts 129°
2026-04-12 05:52 -37.44394 143.10655 27226 ft 424 kts 129°
2026-04-12 05:53 -37.45870 143.13859 26983 ft 422 kts 129°
2026-04-12 05:53 -37.47341 143.17046 26741 ft 421 kts 129°
2026-04-12 05:53 -37.48800 143.20230 26498 ft 419 kts 128°
2026-04-12 05:53 -37.50256 143.23410 26257 ft 418 kts 128°
2026-04-12 05:54 -37.51709 143.26574 26017 ft 417 kts 129°
2026-04-12 05:54 -37.53155 143.29725 25777 ft 415 kts 128°
2026-04-12 05:54 -37.54592 143.32880 25536 ft 414 kts 128°
2026-04-12 05:54 -37.55953 143.35862 25311 ft 413 kts 128°
2026-04-12 05:55 -37.57383 143.38986 25075 ft 411 kts 128°
2026-04-12 05:55 -37.58811 143.42109 24839 ft 410 kts 128°
2026-04-12 05:55 -37.60228 143.45223 24601 ft 409 kts 128°
2026-04-12 05:55 -37.61639 143.48329 24368 ft 408 kts 128°
2026-04-12 05:56 -37.63049 143.51424 24134 ft 406 kts 128°
2026-04-12 05:56 -37.64454 143.54511 23902 ft 405 kts 128°
2026-04-12 05:56 -37.65855 143.57596 23667 ft 404 kts 128°
2026-04-12 05:56 -37.67248 143.60670 23403 ft 403 kts 128°
2026-04-12 05:57 -37.68633 143.63729 23160 ft 400 kts 128°
2026-04-12 05:57 -37.70012 143.66775 22922 ft 399 kts 128°
2026-04-12 05:57 -37.71390 143.69811 22694 ft 398 kts 128°
2026-04-12 05:57 -37.72758 143.72844 22462 ft 397 kts 127°
2026-04-12 05:58 -37.74120 143.75868 22239 ft 395 kts 128°
2026-04-12 05:58 -37.75478 143.78878 22010 ft 394 kts 128°
2026-04-12 05:58 -37.76834 143.81879 21781 ft 392 kts 127°
2026-04-12 05:58 -37.78180 143.84871 21554 ft 391 kts 127°
2026-04-12 05:59 -37.79520 143.87853 21335 ft 390 kts 127°
2026-04-12 05:59 -37.80857 143.90829 21108 ft 388 kts 127°
2026-04-12 05:59 -37.82105 143.93863 20876 ft 393 kts 120°
2026-04-12 05:59 -37.82932 143.97191 20667 ft 400 kts 110°
2026-04-12 06:00 -37.83323 144.00640 20425 ft 406 kts 98°
2026-04-12 06:00 -37.83256 144.04232 20045 ft 413 kts 88°
2026-04-12 06:00 -37.82802 144.07816 19501 ft 410 kts 85°
2026-04-12 06:00 -37.82376 144.11348 18947 ft 403 kts 86°
2026-04-12 06:01 -37.82006 144.14840 18402 ft 398 kts 86°
2026-04-12 06:01 -37.81603 144.18289 17822 ft 394 kts 85°
2026-04-12 06:01 -37.81167 144.21696 17285 ft 391 kts 85°
2026-04-12 06:01 -37.80759 144.25077 16759 ft 387 kts 86°
2026-04-12 06:02 -37.80378 144.28427 16232 ft 383 kts 86°
2026-04-12 06:02 -37.79986 144.31743 15720 ft 380 kts 86°
2026-04-12 06:02 -37.79578 144.35025 15202 ft 376 kts 85°
2026-04-12 06:02 -37.79183 144.38271 14693 ft 372 kts 86°
2026-04-12 06:03 -37.78802 144.41486 14188 ft 368 kts 86°
2026-04-12 06:03 -37.78417 144.44669 13678 ft 364 kts 86°
2026-04-12 06:03 -37.78028 144.47818 13163 ft 362 kts 86°
2026-04-12 06:03 -37.77651 144.50908 12682 ft 359 kts 86°
2026-04-12 06:04 -37.77271 144.54065 12189 ft 357 kts 86°
2026-04-12 06:04 -37.76892 144.57153 11705 ft 354 kts 86°
2026-04-12 06:04 -37.76855 144.60150 11230 ft 326 kts 106°
2026-04-12 06:04 -37.77502 144.62784 10761 ft 307 kts 120°
2026-04-12 06:05 -37.78341 144.65244 10305 ft 303 kts 121°
2026-04-12 06:05 -37.79193 144.67676 9847 ft 302 kts 121°
2026-04-12 06:05 -37.80037 144.70091 9344 ft 299 kts 121°
2026-04-12 06:05 -37.80881 144.72474 8848 ft 296 kts 121°
2026-04-12 06:06 -37.81723 144.74797 8359 ft 293 kts 121°
2026-04-12 06:06 -37.82575 144.77127 7876 ft 291 kts 121°
2026-04-12 06:06 -37.83416 144.79430 7497 ft 288 kts 118°
2026-04-12 06:06 -37.83931 144.81913 7145 ft 294 kts 104°
2026-04-12 06:07 -37.84195 144.84476 6803 ft 293 kts 101°
2026-04-12 06:07 -37.84443 144.87021 6464 ft 291 kts 101°
2026-04-12 06:07 -37.84697 144.89549 6102 ft 289 kts 102°
2026-04-12 06:07 -37.84965 144.92065 5735 ft 288 kts 102°
2026-04-12 06:08 -37.85235 144.94573 5377 ft 287 kts 102°
2026-04-12 06:08 -37.85504 144.97073 5034 ft 286 kts 102°
2026-04-12 06:08 -37.85745 144.99353 5011 ft 284 kts 102°
2026-04-12 06:08 -37.86003 145.01736 5015 ft 286 kts 102°
2026-04-12 06:09 -37.86197 145.04238 5010 ft 289 kts 91°
2026-04-12 06:09 -37.85725 145.06719 4796 ft 290 kts 64°
2026-04-12 06:09 -37.84560 145.08663 4480 ft 268 kts 43°
2026-04-12 06:09 -37.83250 145.10249 4158 ft 260 kts 42°
2026-04-12 06:10 -37.81964 145.11793 3841 ft 248 kts 41°
2026-04-12 06:10 -37.80735 145.13282 3621 ft 245 kts 41°
2026-04-12 06:10 -37.79517 145.14754 3418 ft 237 kts 39°
2026-04-12 06:10 -37.78143 145.15667 3208 ft 214 kts
2026-04-12 06:11 -37.76685 145.15945 3026 ft 208 kts
2026-04-12 06:11 -37.75291 145.15981 3003 ft 198 kts 339°
2026-04-12 06:11 -37.74186 145.15090 2998 ft 183 kts 304°
2026-04-12 06:11 -37.73395 145.13853 3013 ft 182 kts 301°
2026-04-12 06:12 -37.72843 145.12472 3014 ft 174 kts 279°
2026-04-12 06:12 -37.72625 145.10985 3017 ft 171 kts 269°
2026-04-12 06:12 -37.72612 145.09516 3004 ft 159 kts 266°
2026-04-12 06:12 -37.72629 145.08176 2898 ft 152 kts 265°
2026-04-12 06:13 -37.72655 145.06923 2706 ft 137 kts 263°
2026-04-12 06:13 -37.72695 145.05716 2531 ft 137 kts 265°
2026-04-12 06:13 -37.72720 145.04550 2342 ft 131 kts 263°
2026-04-12 06:13 -37.72755 145.03389 2168 ft 133 kts 264°
2026-04-12 06:14 -37.72784 145.02241 1988 ft 128 kts 264°
2026-04-12 06:14 -37.72816 145.01113 1815 ft 132 kts 264°
2026-04-12 06:14 -37.72848 144.99945 1633 ft 133 kts 265°
2026-04-12 06:14 -37.72876 144.98778 1448 ft 135 kts 264°
2026-04-12 06:15 -37.72913 144.97617 1260 ft 133 kts 264°
2026-04-12 06:15 -37.72947 144.96405 1111 ft 144 kts 267°
2026-04-12 06:15 -37.72975 144.95228 865 ft 118 kts 266°
2026-04-12 06:15 -37.72989 144.94240 644 ft 118 kts 265°
2026-04-12 06:16 -37.73027 144.93210 545 ft 113 kts 266°
2026-04-12 06:16 -37.73046 144.92238 417 ft 110 kts 261°
2026-04-12 06:16 -37.73083 144.91304 272 ft 101 kts 264°
2026-04-12 06:16 -37.73099 144.90550 246 ft 73 kts 262°
2026-04-12 06:17 -37.73120 144.90036 248 ft 47 kts 268°
2026-04-12 06:17 -37.73130 144.89665 246 ft 44 kts 269°
2026-04-12 06:17 -37.73125 144.89393 244 ft 20 kts 297°
2026-04-12 06:17 -37.73040 144.89377 246 ft 12 kts
2026-04-12 06:18 -37.72989 144.89385 246 ft 13 kts
2026-04-12 06:18 -37.72866 144.89405 248 ft 12 kts 12°